User: anonymous   Login
Location: Carri�res
(48.9069°N, 2.1792°E)
Time: 15:58:46
(UTC+00:00)
Language:

SAR-Lupe-4 - Orbit

View from above orbital plane
View from above orbital plane
View from above satellite
View from above satellite

Ground track
Ground track

The orbit data is extracted from the following two-line orbital elements,

1 32750U 08014A   21085.79086187 0.00001400  00000-0  51964-4 0    09
2 32750  98.2082 284.4554 0003103  16.4116 343.5882 15.27607389    07
Epoch (UTC): 26 March 2021 18:58:50
Eccentricity: 0.0003103
inclination: 98.2082°
perigee height: 481 km
apogee height: 485 km
right ascension of ascending node: 284.4554°
argument of perigee: 16.4116°
revolutions per day: 15.27607389
mean anomaly at epoch: 343.5882°
orbit number at epoch: 0

The dashed part of the orbit path shows where the satellite is in the earth's shadow,  

DLR